Volver al catálogo

STARLINK-1063

ActivoComunicacionesVLEO
NORAD 44768·PAYLOAD·🇺🇸 United States

Lanzado Nov 11, 2019 desde Cape Canaveral Space Force Station

Loading…

Próximos Pases (próximas 24 horas)

TLE

ActualizadoSource: CelesTrak SupGP

Época: Sep 14, 2026, 20:41 UTC

1 44768C 19074BH  26257.86229167  .00120660  00000+0  13816-2 0  2575
2 44768  53.1493  36.8882 0000907 198.5843  22.2173 15.61427443    10

Sigue STARLINK-1063 en tiempo real con AllMySat

Download on the App Store